Hauptseite
METAR-TAF:

METAR-TAF

Flughäfen :

Landsberg, Deutschland

Fliegerhorst Landsberg/Lech

Breite: 48-04N, Länge: 010-54E, Höhe: 623 m

Beobachtung

Neuester Wetterbericht von vor 20 Minuten, um 03:20 UTC
Wind 9 kt aus Süd/Südost
Temperatur 3°C
Luftfeuchtigkeit 87%
Luftdruck 988 hPa
Sichtweite 10 km oder mehr
Aufgelockert bewölkt in der Höhe von 5000 ft
Durchbrochene Bewölkung in der Höhe von 7000 ft

METAR: ETSA 110320Z 15009KT 9999 SCT050 BKN070 03/01 Q0988 BLU

Zeit: 04:40 (03:40 UTC)


TAF: fehlend

Wetterbeobachtungen und Prognosen von mehr als 4000 Flughäfen (METAR und TAF Bericht).

Die verfügbaren Stationen werden durch gelbe und rote Markierungen auf der Karte dargestellt.

Führen Sie die Maus auf sie, um den Namen der Station zu sehen.

Darauf klicken, um die Beobachtung von Wetterbeobachtungen und Prognosen zu sehen.

Um die Karte zu ändern : klicken Sie auf den grünen Tasten mit einem schwarzen Kreuz Zum Vergrößern, auf den grünen Button mit einem Gedankenstrich zu verkleinern, oder auf die grünen Pfeile für benachbarte Karten.


METAR-TAF: